Date String (YYYY-MM-DD hh:mm:ss) UTC,Instrument flags,Ambient pressure (hPa),Sample flow (lpm),Bypass flow (lpm),Sample temperature (°C),Ambient temperature (°C),ASC tube jacket temperature (°C),LED temperature (°C),Box temperature (°C),Sample RH (%),Span deviation,Mass concentration (μg/m³),Mass concentration (μg/m³),Mass concentration (μg/m³)
DateTimeUTC,F1_M11,P_M11,Q1_M11,Q2_M11,T1_M11,T2_M11,T3_M11,T4_M11,T5_M11,U1_M11,ZSPAN_M11,X2_M11,X0_M11,X1_M11
2023-02-26 09:00:00,,0818.4,5.00,0.00,22.4,21.9,00.0,31.0,24.3,13.6,0000.0,0004.03,0009.28,0003.44
2023-02-26 09:01:00,,0818.3,4.98,0.00,22.4,21.6,00.0,31.1,24.3,13.6,0000.0,0004.02,0009.00,0003.42
2023-02-26 09:02:00,,0818.3,4.99,0.00,22.4,21.4,00.0,31.1,24.2,13.6,0000.0,0004.04,0008.92,0003.42
2023-02-26 09:03:00,,0818.2,5.01,0.00,22.4,21.2,00.0,31.1,24.2,13.6,0000.0,0004.05,0009.13,0003.41
2023-02-26 09:04:00,,0818.2,4.99,0.00,22.4,21.1,00.0,31.1,24.2,13.6,0000.0,0004.03,0009.12,0003.39
2023-02-26 09:05:00,,0818.2,5.01,0.00,22.4,20.9,00.0,31.1,24.1,13.6,0000.0,0004.04,0008.41,0003.36
2023-02-26 09:06:00,,0818.1,5.00,0.00,22.4,20.9,00.0,31.1,24.1,13.5,0000.0,0004.08,0008.39,0003.35
2023-02-26 09:07:00,,0818.0,5.00,0.00,22.4,20.8,00.0,31.1,24.1,13.5,0000.0,0004.09,0008.42,0003.34
2023-02-26 09:08:00,,0818.1,5.00,0.00,22.4,20.7,00.0,31.1,24.1,13.4,0000.0,0004.07,0008.41,0003.31
2023-02-26 09:09:00,,0818.1,5.01,0.00,22.3,20.7,00.0,31.1,24.1,13.3,0000.0,0004.07,0008.18,0003.27
2023-02-26 09:10:00,,0818.0,4.99,0.00,22.3,20.6,00.0,31.1,24.0,13.3,0000.0,0004.00,0008.25,0003.24
2023-02-26 09:11:00,,0818.0,5.01,0.00,22.3,20.6,00.0,31.1,24.0,13.2,0000.0,0003.96,0008.62,0003.21
2023-02-26 09:12:00,,0818.1,5.01,0.00,22.3,20.6,00.0,31.1,24.0,13.2,0000.0,0003.92,0009.21,0003.17
2023-02-26 09:13:00,,0818.0,4.99,0.00,22.3,20.5,00.0,31.1,24.0,13.2,0000.0,0003.84,0009.10,0003.12
2023-02-26 09:14:00,,0818.0,4.99,0.00,22.3,20.5,00.0,31.0,24.0,13.2,0000.0,0003.75,0008.72,0003.06
2023-02-26 09:15:00,,0818.0,5.00,0.00,22.2,20.5,00.0,31.0,23.9,13.2,0000.0,0003.73,0008.43,0003.00
2023-02-26 09:16:00,,0818.0,5.00,0.00,22.2,20.5,00.0,31.0,23.9,13.4,0000.0,0003.67,0008.37,0002.93
2023-02-26 09:17:00,,0817.9,5.00,0.00,22.2,20.4,00.0,31.0,23.9,13.4,0000.0,0003.56,0008.16,0002.86
2023-02-26 09:18:00,,0817.9,5.00,0.00,22.2,20.4,00.0,31.0,23.9,13.4,0000.0,0003.53,0008.24,0002.79
2023-02-26 09:19:00,,0817.8,5.01,0.00,22.2,20.4,00.0,31.0,23.9,13.3,0000.0,0003.47,0008.13,0002.76
2023-02-26 09:20:00,,0817.8,5.02,0.00,22.2,21.1,00.0,31.0,24.0,13.2,0000.0,0003.40,0008.28,0002.73
2023-02-26 09:21:00,,0817.8,5.01,0.00,22.3,22.3,00.0,30.9,24.3,13.2,0000.0,0003.39,0008.36,0002.71
2023-02-26 09:22:00,,0817.9,4.97,0.00,22.4,23.2,00.0,31.0,24.5,13.1,0000.0,0003.43,0008.60,0002.68
2023-02-26 09:23:00,,0817.8,5.03,0.00,22.5,22.8,00.0,31.0,24.5,13.0,0000.0,0003.43,0007.97,0002.66
2023-02-26 09:24:00,,0817.8,4.98,0.00,22.5,22.3,00.0,31.1,24.4,13.0,0000.0,0003.43,0007.92,0002.67
2023-02-26 09:25:00,,0817.8,4.97,0.00,22.5,21.9,00.0,31.1,24.4,13.1,0000.0,0003.45,0008.03,0002.68
2023-02-26 09:26:00,,0817.8,5.00,0.00,22.5,21.6,00.0,31.1,24.3,13.0,0000.0,0003.45,0007.99,0002.68
2023-02-26 09:27:00,,0817.8,5.02,0.00,22.5,21.4,00.0,31.1,24.3,12.9,0000.0,0003.49,0008.28,0002.68
2023-02-26 09:28:00,,0817.8,5.01,0.00,22.5,21.2,00.0,31.1,24.2,12.9,0000.0,0003.51,0008.39,0002.68
2023-02-26 09:29:00,,0817.7,4.99,0.00,22.5,21.0,00.0,31.1,24.2,12.8,0000.0,0003.49,0008.25,0002.66
2023-02-26 09:30:00,,0817.8,4.98,0.00,22.5,20.9,00.0,31.1,24.2,12.9,0000.0,0003.49,0008.19,0002.67
2023-02-26 09:31:00,,0817.8,4.98,0.00,22.4,20.8,00.0,31.1,24.2,12.9,0000.0,0003.53,0007.98,0002.68
2023-02-26 09:32:00,,0817.7,4.97,0.00,22.4,20.8,00.0,31.1,24.2,12.8,0000.0,0003.58,0007.85,0002.69
2023-02-26 09:33:00,,0817.6,5.00,0.00,22.4,20.7,00.0,31.1,24.1,12.7,0000.0,0003.53,0007.11,0002.68
2023-02-26 09:34:00,,0817.6,5.00,0.00,22.4,20.7,00.0,31.1,24.1,12.8,0000.0,0003.49,0007.08,0002.67
2023-02-26 09:35:00,,0817.6,5.00,0.00,22.4,20.6,00.0,31.1,24.1,12.9,0000.0,0003.46,0007.19,0002.67
2023-02-26 09:36:00,,0817.6,5.01,0.00,22.3,20.6,00.0,31.1,24.1,13.0,0000.0,0003.43,0006.96,0002.63
2023-02-26 09:37:00,,0817.5,4.99,0.00,22.3,20.5,00.0,31.1,24.0,13.0,0000.0,0003.39,0006.65,0002.64
2023-02-26 09:38:00,,0817.6,5.01,0.00,22.3,20.5,00.0,31.1,24.0,12.9,0000.0,0003.35,0006.12,0002.65
2023-02-26 09:39:00,,0817.6,5.00,0.00,22.3,20.5,00.0,31.1,24.0,12.9,0000.0,0003.36,0006.09,0002.65
2023-02-26 09:40:00,,0817.5,5.00,0.00,22.3,20.5,00.0,31.1,24.0,12.9,0000.0,0003.36,0006.08,0002.65
2023-02-26 09:41:00,,0817.5,5.00,0.00,22.2,20.5,00.0,31.1,24.0,12.9,0000.0,0003.35,0006.06,0002.63
2023-02-26 09:42:00,,0817.5,4.99,0.00,22.2,20.5,00.0,31.0,23.9,12.9,0000.0,0003.32,0005.95,0002.61
2023-02-26 09:43:00,,0817.5,5.03,0.00,22.2,20.4,00.0,31.0,23.9,13.0,0000.0,0003.26,0005.60,0002.59
2023-02-26 09:44:00,,0817.5,5.00,0.00,22.2,21.1,00.0,31.0,24.1,13.2,0000.0,0003.28,0005.61,0002.64
2023-02-26 09:45:00,,0817.5,5.00,0.00,22.3,22.2,00.0,31.0,24.3,13.3,0000.0,0003.32,0005.55,0002.69
2023-02-26 09:46:00,,0817.5,4.99,0.00,22.5,23.0,00.0,31.0,24.5,13.3,0000.0,0003.35,0005.36,0002.74
2023-02-26 09:47:00,,0817.5,5.00,0.00,22.5,22.7,00.0,31.1,24.5,13.2,0000.0,0003.40,0005.53,0002.80
2023-02-26 09:48:00,,0817.4,5.00,0.00,22.5,22.2,00.0,31.1,24.4,13.3,0000.0,0003.46,0005.72,0002.87
2023-02-26 09:49:00,,0817.4,5.02,0.00,22.5,21.8,00.0,31.1,24.3,13.3,0000.0,0003.50,0005.86,0002.93
2023-02-26 09:50:00,,0817.4,4.99,0.00,22.5,21.5,00.0,31.1,24.2,13.3,0000.0,0003.55,0006.75,0003.03
2023-02-26 09:51:00,,0817.4,5.01,0.00,22.5,21.2,00.0,31.1,24.2,13.4,0000.0,0003.62,0007.48,0003.12
2023-02-26 09:52:00,,0817.3,5.01,0.00,22.4,21.0,00.0,31.1,24.1,13.5,0000.0,0003.68,0007.54,0003.18
2023-02-26 09:53:00,,0817.2,4.99,0.00,22.4,20.9,00.0,31.1,24.1,13.6,0000.0,0003.79,0007.74,0003.25
2023-02-26 09:54:00,,0817.2,5.01,0.00,22.4,20.8,00.0,31.1,24.1,13.6,0000.0,0003.88,0007.88,0003.31
2023-02-26 09:55:00,,0817.2,4.99,0.00,22.4,20.7,00.0,31.1,24.1,13.6,0000.0,0003.95,0007.98,0003.35
2023-02-26 09:56:00,,0817.2,5.01,0.00,22.3,20.6,00.0,31.1,24.0,13.7,0000.0,0003.98,0008.00,0003.38
2023-02-26 09:57:00,,0817.1,4.99,0.00,22.3,20.5,00.0,31.1,24.0,13.7,0000.0,0004.02,0008.07,0003.40
2023-02-26 09:58:00,,0817.1,5.00,0.00,22.3,20.4,00.0,31.1,24.0,13.7,0000.0,0004.08,0008.41,0003.43
2023-02-26 09:59:00,,0817.1,5.00,0.00,22.2,20.4,00.0,31.1,23.9,13.8,0000.0,0004.12,0008.81,0003.44
